Location: Iesi
(43.5167°N, 13.2333°E)
Time: 16:07:41
(UTC+00:00)

Meteor 1-4 Rocket - Pass Details

Date: 08 August 2020
Orbit: 449 x 502 km, 81.2° (Epoch: 22 September)

Event Time Altitude Azimuth Distance (km) Brightness Sun altitude
Rises 20:16:19 0° 348° (NNW) 2,485 7.1 -18.3°
Reaches altitude 10° 20:18:24 10° 348° (NNW) 1,600 6.0 -18.5°
Maximum altitude 20:21:53 80° 262° (W) 464 2.4 -19.0°
Enters shadow 20:22:33 55° 186° (S) 546 2.5 -19.1°
